| time (UTC) | temp F | wind direction | speed MPH | gust MPH | rain 1hr in | rain 24hr in | rain mn in | humidity % | barometer mb |
| 20260507201540 | 63 | 293 | 7.0 | 17.0 | 0.00 | 0.14 | 0.10 | 35 | 1004.5 |
| 20260507200517 | 63 | 293 | 7.0 | 12.0 | 0.00 | 0.14 | 0.10 | 35 | 1004.6 |
| 20260507195517 | 64 | 0 | 6.0 | 15.0 | 0.00 | 0.14 | 0.10 | 37 | 1004.6 |
| 20260507194518 | 64 | 293 | 4.0 | 11.0 | 0.00 | 0.14 | 0.10 | 37 | 1004.7 |
| 20260507193519 | 63 | 293 | 9.0 | 17.0 | 0.00 | 0.14 | 0.10 | 37 | 1004.8 |
| 20260507192518 | 63 | 293 | 9.0 | 18.0 | 0.00 | 0.14 | 0.10 | 37 | 1004.9 |
| 20260507191517 | 64 | 293 | 7.0 | 17.0 | 0.00 | 0.14 | 0.10 | 37 | 1004.9 |
| 20260507190518 | 64 | 338 | 7.0 | 12.0 | 0.00 | 0.14 | 0.10 | 36 | 1005.1 |
| 20260507185517 | 63 | 293 | 6.0 | 14.0 | 0.00 | 0.14 | 0.10 | 41 | 1005.0 |
| 20260507184537 | 60 | 225 | 4.0 | 10.0 | 0.00 | 0.14 | 0.10 | 46 | 1005.2 |
| 20260507183518 | 59 | 180 | 2.0 | 5.0 | 0.00 | 0.14 | 0.10 | 65 | 1005.4 |
| 20260507182517 | 59 | 180 | 4.0 | 9.0 | 0.00 | 0.14 | 0.10 | 66 | 1005.4 |
| 20260507181518 | 58 | 158 | 4.0 | 10.0 | 0.00 | 0.14 | 0.10 | 68 | 1005.6 |
| 20260507180517 | 56 | 158 | 5.0 | 9.0 | 0.00 | 0.14 | 0.10 | 71 | 1005.7 |
| 20260507175517 | 55 | 158 | 3.0 | 6.0 | 0.00 | 0.14 | 0.10 | 72 | 1005.6 |
| 20260507174517 | 55 | 158 | 7.0 | 11.0 | 0.00 | 0.14 | 0.10 | 70 | 1005.8 |
| 20260507173539 | 55 | 158 | 3.0 | 9.0 | 0.00 | 0.14 | 0.10 | 71 | 1005.8 |
| 20260507172517 | 55 | 158 | 2.0 | 7.0 | 0.00 | 0.14 | 0.10 | 72 | 1005.8 |
| 20260507171518 | 55 | 180 | 5.0 | 10.0 | 0.00 | 0.14 | 0.10 | 71 | 1005.8 |
| 20260507170517 | 56 | 158 | 8.0 | 15.0 | 0.00 | 0.14 | 0.10 | 68 | 1005.9 |
| 20260507165517 | 56 | 158 | 8.0 | 15.0 | 0.00 | 0.14 | 0.10 | 69 | 1006.0 |
| 20260507164517 | 56 | 180 | 6.0 | 15.0 | 0.00 | 0.14 | 0.10 | 68 | 1006.2 |
| 20260507163517 | 55 | 180 | 6.0 | 13.0 | 0.00 | 0.14 | 0.10 | 69 | 1006.3 |
| 20260507162539 | 55 | 180 | 7.0 | 13.0 | 0.00 | 0.14 | 0.10 | 71 | 1006.4 |
| 20260507161518 | 55 | 158 | 7.0 | 12.0 | 0.00 | 0.14 | 0.10 | 71 | 1006.7 |
| 20260507160518 | 56 | 180 | 5.0 | 11.0 | 0.00 | 0.14 | 0.10 | 70 | 1006.5 |
| 20260507155518 | 57 | 180 | 5.0 | 11.0 | 0.00 | 0.14 | 0.10 | 68 | 1006.7 |
| 20260507154517 | 56 | 180 | 6.0 | 12.0 | 0.00 | 0.14 | 0.10 | 67 | 1006.7 |
| 20260507153517 | 55 | 180 | 5.0 | 10.0 | 0.00 | 0.14 | 0.10 | 70 | 1006.8 |
| 20260507152557 | 56 | 180 | 4.0 | 9.0 | 0.00 | 0.14 | 0.10 | 67 | 1006.9 |
| 20260507151517 | 56 | 180 | 5.0 | 9.0 | 0.00 | 0.14 | 0.10 | 68 | 1006.9 |
| 20260507150517 | 58 | 315 | 2.0 | 5.0 | 0.00 | 0.14 | 0.10 | 66 | 1007.1 |
| 20260507145518 | 58 | 45 | 4.0 | 9.0 | 0.00 | 0.14 | 0.10 | 66 | 1007.0 |
| 20260507144538 | 58 | 68 | 3.0 | 8.0 | 0.00 | 0.14 | 0.10 | 67 | 1007.1 |
| 20260507143517 | 58 | 45 | 1.0 | 8.0 | 0.00 | 0.14 | 0.10 | 67 | 1007.4 |
| 20260507142517 | 58 | 0 | 2.0 | 8.0 | 0.00 | 0.14 | 0.10 | 67 | 1007.2 |
| 20260507141517 | 57 | 68 | 2.0 | 6.0 | 0.00 | 0.14 | 0.10 | 72 | 1007.3 |
| 20260507140537 | 56 | 293 | 3.0 | 7.0 | 0.00 | 0.14 | 0.10 | 69 | 1007.4 |
| 20260507135517 | 56 | 68 | 3.0 | 7.0 | 0.00 | 0.14 | 0.10 | 72 | 1007.4 |
| 20260507134517 | 55 | 270 | 2.0 | 6.0 | 0.00 | 0.14 | 0.10 | 72 | 1007.4 |
| 20260507133518 | 54 | 0 | 4.0 | 6.0 | 0.00 | 0.14 | 0.10 | 74 | 1007.5 |
| 20260507132517 | 54 | 45 | 2.0 | 4.0 | 0.00 | 0.14 | 0.10 | 76 | 1007.6 |
| 20260507131517 | 53 | 0 | 3.0 | 7.0 | 0.00 | 0.14 | 0.10 | 78 | 1007.8 |
| 20260507130538 | 52 | 338 | 4.0 | 8.0 | 0.00 | 0.14 | 0.10 | 81 | 1007.9 |
| 20260507125517 | 52 | 45 | 2.0 | 7.0 | 0.00 | 0.14 | 0.10 | 85 | 1008.0 |
| 20260507124517 | 50 | 0 | 3.0 | 8.0 | 0.00 | 0.14 | 0.10 | 85 | 1007.8 |
| 20260507123517 | 50 | 338 | 1.0 | 5.0 | 0.00 | 0.14 | 0.10 | 87 | 1007.7 |
| 20260507122517 | 50 | 0 | 1.0 | 3.0 | 0.00 | 0.14 | 0.10 | 89 | 1007.6 |
| 20260507121516 | 49 | 338 | 1.0 | 4.0 | 0.00 | 0.14 | 0.10 | 89 | 1007.6 |
| 20260507120516 | 49 | 0 | 3.0 | 6.0 | 0.00 | 0.14 | 0.10 | 89 | 1007.7 |
| 20260507115518 | 48 | 0 | 2.0 | 8.0 | 0.00 | 0.14 | 0.10 | 90 | 1007.4 |
| 20260507114516 | 48 | 0 | 3.0 | 9.0 | 0.01 | 0.14 | 0.10 | 91 | 1007.5 |
| 20260507113516 | 48 | 23 | 2.0 | 5.0 | 0.01 | 0.14 | 0.10 | 93 | 1007.5 |
| 20260507112517 | 48 | 0 | 1.0 | 4.0 | 0.01 | 0.14 | 0.10 | 93 | 1007.3 |
| 20260507111538 | 48 | 0 | 2.0 | 3.0 | 0.01 | 0.14 | 0.10 | 93 | 1007.4 |
| 20260507110516 | 48 | 0.0 | 1.0 | 0.02 | 0.14 | 0.10 | 93 | 1007.2 | |
| 20260507105517 | 48 | 0.0 | 2.0 | 0.03 | 0.14 | 0.10 | 92 | 1007.6 | |
| 20260507104516 | 48 | 0.0 | 2.0 | 0.02 | 0.13 | 0.09 | 92 | 1007.4 | |
| 20260507103538 | 48 | 315 | 1.0 | 4.0 | 0.03 | 0.13 | 0.09 | 92 | 1007.3 |
| 20260507102517 | 48 | 338 | 1.0 | 4.0 | 0.05 | 0.13 | 0.09 | 92 | 1007.3 |
| 20260507101517 | 48 | 338 | 3.0 | 6.0 | 0.07 | 0.13 | 0.09 | 91 | 1007.1 |
| 20260507100516 | 48 | 0 | 2.0 | 5.0 | 0.06 | 0.12 | 0.08 | 91 | 1007.1 |
| 20260507095516 | 48 | 0 | 3.0 | 8.0 | 0.05 | 0.11 | 0.07 | 91 | 1006.8 |
| 20260507094516 | 48 | 0 | 4.0 | 10.0 | 0.05 | 0.11 | 0.07 | 91 | 1006.9 |
| 20260507093516 | 49 | 0 | 4.0 | 9.0 | 0.04 | 0.10 | 0.06 | 90 | 1006.9 |
| 20260507092536 | 49 | 338 | 3.0 | 9.0 | 0.03 | 0.08 | 0.04 | 90 | 1007.0 |
| 20260507091536 | 50 | 338 | 4.0 | 8.0 | 0.01 | 0.06 | 0.02 | 89 | 1007.1 |
| 20260507090516 | 50 | 293 | 5.0 | 11.0 | 0.01 | 0.06 | 0.02 | 89 | 1007.0 |
| 20260507085516 | 50 | 338 | 3.0 | 8.0 | 0.02 | 0.06 | 0.02 | 90 | 1006.8 |
| 20260507084516 | 50 | 45 | 2.0 | 8.0 | 0.02 | 0.06 | 0.02 | 90 | 1006.5 |
| 20260507083516 | 51 | 338 | 6.0 | 12.0 | 0.02 | 0.06 | 0.02 | 89 | 1006.3 |
| 20260507082516 | 51 | 315 | 6.0 | 12.0 | 0.01 | 0.05 | 0.01 | 89 | 1006.5 |
| 20260507081536 | 51 | 315 | 6.0 | 14.0 | 0.01 | 0.05 | 0.01 | 89 | 1006.4 |
| 20260507080516 | 52 | 338 | 6.0 | 13.0 | 0.01 | 0.05 | 0.01 | 87 | 1006.4 |
| 20260507075516 | 52 | 315 | 5.0 | 11.0 | 0.00 | 0.04 | 0.00 | 86 | 1006.3 |
| 20260507074516 | 52 | 0 | 3.0 | 11.0 | 0.00 | 0.04 | 0.00 | 86 | 1006.0 |
| 20260507073537 | 53 | 0 | 3.0 | 8.0 | 0.00 | 0.04 | 0.00 | 86 | 1005.9 |
| 20260507072516 | 53 | 0 | 4.0 | 11.0 | 0.00 | 0.04 | 0.00 | 85 | 1005.9 |
| 20260507071516 | 53 | 338 | 3.0 | 9.0 | 0.00 | 0.04 | 0.00 | 86 | 1006.0 |
| 20260507070516 | 53 | 293 | 5.0 | 13.0 | 0.00 | 0.04 | 0.00 | 87 | 1006.0 |
| 20260507065516 | 54 | 338 | 3.0 | 9.0 | 0.00 | 0.04 | 0.00 | 90 | 1006.0 |
| 20260507064516 | 54 | 338 | 3.0 | 11.0 | 0.00 | 0.04 | 0.00 | 90 | 1005.9 |
| 20260507063516 | 54 | 338 | 3.0 | 6.0 | 0.00 | 0.04 | 0.00 | 91 | 1005.6 |
| 20260507062516 | 54 | 338 | 3.0 | 9.0 | 0.00 | 0.04 | 0.00 | 91 | 1005.7 |
| 20260507061516 | 54 | 315 | 2.0 | 7.0 | 0.00 | 0.04 | 0.00 | 92 | 1005.9 |
| 20260507060516 | 54 | 315 | 3.0 | 7.0 | 0.00 | 0.04 | 0.00 | 92 | 1005.8 |
| 20260507055536 | 55 | 293 | 4.0 | 11.0 | 0.00 | 0.04 | 0.00 | 94 | 1006.1 |
| 20260507054536 | 55 | 293 | 4.0 | 10.0 | 0.00 | 0.04 | 0.00 | 95 | 1006.0 |
| 20260507053515 | 55 | 315 | 3.0 | 11.0 | 0.00 | 0.04 | 0.00 | 95 | 1005.8 |
| 20260507052536 | 56 | 338 | 4.0 | 11.0 | 0.00 | 0.04 | 0.00 | 95 | 1005.9 |
| 20260507051556 | 58 | 315 | 3.0 | 10.0 | 0.00 | 0.04 | 0.00 | 97 | 1005.8 |
| 20260507050556 | 58 | 293 | 5.0 | 11.0 | 0.00 | 0.04 | 0.00 | 98 | 1005.7 |
| 20260507045515 | 58 | 315 | 3.0 | 11.0 | 0.00 | 0.04 | 0.00 | 98 | 1005.6 |
| 20260507044516 | 57 | 270 | 1.0 | 4.0 | 0.00 | 0.04 | 0.00 | 98 | 1005.6 |
| 20260507043516 | 57 | 203 | 1.0 | 3.0 | 0.00 | 0.04 | 0.00 | 98 | 1005.7 |
| 20260507042516 | 57 | 203 | 1.0 | 5.0 | 0.00 | 0.04 | 0.00 | 98 | 1005.6 |
| 20260507041518 | 56 | 203 | 1.0 | 4.0 | 0.00 | 0.04 | 0.00 | 98 | 1005.9 |
| 20260507040518 | 56 | 203 | 1.0 | 6.0 | 0.00 | 0.04 | 0.00 | 98 | 1005.8 |
| 20260507035518 | 56 | 180 | 2.0 | 5.0 | 0.00 | 0.04 | 0.04 | 98 | 1005.8 |
| 20260507034538 | 56 | 248 | 3.0 | 7.0 | 0.00 | 0.04 | 0.04 | 98 | 1005.9 |
| 20260507033518 | 56 | 225 | 3.0 | 9.0 | 0.00 | 0.04 | 0.04 | 98 | 1005.6 |
| 20260507032516 | 56 | 203 | 3.0 | 7.0 | 0.00 | 0.04 | 0.04 | 98 | 1005.4 |
| 20260507031516 | 56 | 180 | 3.0 | 7.0 | 0.00 | 0.04 | 0.04 | 98 | 1005.3 |
| 20260507030517 | 56 | 180 | 4.0 | 13.0 | 0.00 | 0.04 | 0.04 | 98 | 1005.3 |
| 20260507025516 | 56 | 180 | 4.0 | 10.0 | 0.00 | 0.04 | 0.04 | 98 | 1005.3 |
| 20260507024538 | 56 | 180 | 3.0 | 10.0 | 0.00 | 0.04 | 0.04 | 97 | 1005.4 |
| 20260507023517 | 56 | 203 | 5.0 | 13.0 | 0.00 | 0.04 | 0.04 | 98 | 1005.3 |
| 20260507022516 | 56 | 203 | 3.0 | 6.0 | 0.00 | 0.04 | 0.04 | 97 | 1005.3 |
| 20260507021517 | 56 | 180 | 4.0 | 11.0 | 0.00 | 0.04 | 0.04 | 97 | 1005.6 |
| 20260507020517 | 56 | 225 | 3.0 | 9.0 | 0.00 | 0.04 | 0.04 | 97 | 1005.6 |
| 20260507015517 | 56 | 180 | 4.0 | 10.0 | 0.00 | 0.04 | 0.04 | 97 | 1005.7 |
| 20260507014516 | 56 | 203 | 5.0 | 12.0 | 0.00 | 0.04 | 0.04 | 97 | 1005.7 |
| 20260507013516 | 56 | 203 | 4.0 | 12.0 | 0.00 | 0.04 | 0.04 | 97 | 1005.8 |
| 20260507012539 | 56 | 203 | 4.0 | 13.0 | 0.00 | 0.04 | 0.04 | 97 | 1005.9 |
| 20260507011516 | 56 | 203 | 6.0 | 14.0 | 0.00 | 0.04 | 0.04 | 97 | 1006.0 |
| 20260507010516 | 56 | 180 | 5.0 | 11.0 | 0.00 | 0.04 | 0.04 | 97 | 1005.9 |
| 20260507005518 | 56 | 180 | 6.0 | 12.0 | 0.01 | 0.04 | 0.04 | 97 | 1005.9 |
| 20260507004516 | 56 | 180 | 6.0 | 15.0 | 0.01 | 0.04 | 0.04 | 97 | 1006.0 |
| 20260507003536 | 56 | 180 | 8.0 | 18.0 | 0.02 | 0.04 | 0.04 | 97 | 1005.9 |
| 20260507002516 | 56 | 180 | 6.0 | 13.0 | 0.02 | 0.04 | 0.04 | 97 | 1005.8 |
| 20260507001516 | 56 | 180 | 8.0 | 12.0 | 0.02 | 0.04 | 0.04 | 97 | 1005.8 |
| 20260507000516 | 56 | 180 | 8.0 | 18.0 | 0.02 | 0.04 | 0.04 | 97 | 1005.9 |
| 20260506235536 | 55 | 180 | 7.0 | 14.0 | 0.01 | 0.03 | 0.03 | 97 | 1005.8 |
| 20260506234536 | 55 | 180 | 10.0 | 19.0 | 0.01 | 0.03 | 0.03 | 97 | 1005.7 |
| 20260506233516 | 56 | 180 | 10.0 | 20.0 | 0.00 | 0.02 | 0.02 | 96 | 1005.9 |
| 20260506232516 | 56 | 180 | 8.0 | 16.0 | 0.00 | 0.02 | 0.02 | 96 | 1006.0 |
| 20260506231516 | 56 | 180 | 9.0 | 16.0 | 0.01 | 0.02 | 0.02 | 96 | 1006.0 |
| 20260506230516 | 56 | 180 | 10.0 | 20.0 | 0.01 | 0.02 | 0.02 | 96 | 1006.3 |
| 20260506225516 | 56 | 180 | 9.0 | 17.0 | 0.01 | 0.02 | 0.02 | 97 | 1006.1 |
| 20260506224516 | 56 | 180 | 10.0 | 18.0 | 0.01 | 0.02 | 0.02 | 95 | 1006.0 |
| 20260506223516 | 57 | 180 | 9.0 | 20.0 | 0.01 | 0.02 | 0.02 | 95 | 1006.3 |
| 20260506222516 | 57 | 180 | 8.0 | 18.0 | 0.01 | 0.02 | 0.02 | 95 | 1006.3 |
| 20260506221536 | 57 | 180 | 9.0 | 17.0 | 0.00 | 0.01 | 0.01 | 95 | 1006.6 |
| 20260506220516 | 57 | 180 | 8.0 | 13.0 | 0.01 | 0.01 | 0.01 | 95 | 1006.7 |
| 20260506215516 | 57 | 180 | 8.0 | 16.0 | 0.01 | 0.01 | 0.01 | 94 | 1006.8 |
| 20260506214516 | 57 | 180 | 7.0 | 16.0 | 0.01 | 0.01 | 0.01 | 94 | 1006.9 |
| 20260506213516 | 57 | 180 | 8.0 | 19.0 | 0.01 | 0.01 | 0.01 | 93 | 1006.8 |
| 20260506212515 | 58 | 180 | 7.0 | 16.0 | 0.01 | 0.01 | 0.01 | 93 | 1007.0 |
| 20260506211516 | 58 | 180 | 8.0 | 17.0 | 0.01 | 0.01 | 0.01 | 92 | 1007.1 |
| 20260506210535 | 59 | 180 | 7.0 | 12.0 | 0.00 | 0.00 | 0.00 | 90 | 1007.0 |
| 20260506205516 | 60 | 180 | 9.0 | 23.0 | 0.00 | 0.00 | 0.00 | 88 | 1007.2 |
| 20260506204517 | 60 | 180 | 10.0 | 22.0 | 0.00 | 0.00 | 0.00 | 87 | 1007.2 |
| 20260506203516 | 60 | 180 | 10.0 | 18.0 | 0.00 | 0.00 | 0.00 | 87 | 1007.1 |
| 20260506202516 | 60 | 180 | 10.0 | 18.0 | 0.00 | 0.00 | 0.00 | 87 | 1006.7 |